Radiation Dose at Monitoring Post of Fukushima Daini Nuclear Power Station
Date,Time,MP-1(microSv/h),MP-2(microSv/h),MP-3(microSv/h),MP-4(microSv/h),MP-5(microSv/h),MP-6(microSv/h),MP-7(microSv/h),Wind Direction,Wind Velocity(m/s),Rain
2016/01/15,00:00,0.474,0.276,0.498,0.453,0.426,0.227,0.201,north-northwest,7.3,Yes
2016/01/15,00:10,0.473,0.276,0.500,0.452,0.426,0.228,0.200,northwest,6.5,Yes
2016/01/15,00:20,0.473,0.276,0.499,0.454,0.426,0.229,0.201,north-northwest,7.3,Yes
2016/01/15,00:30,0.473,0.275,0.499,0.453,0.425,0.227,0.200,north-northwest,7.4,Yes
2016/01/15,00:40,0.473,0.277,0.497,0.449,0.424,0.226,0.201,north-northwest,7.5,Yes
2016/01/15,00:50,0.474,0.275,0.497,0.451,0.425,0.226,0.199,north-northwest,7.3,Yes
2016/01/15,01:00,0.471,0.276,0.498,0.452,0.426,0.226,0.200,north-northwest,7.1,Yes
2016/01/15,01:10,0.472,0.275,0.496,0.452,0.424,0.227,0.199,north-northwest,7.0,No
2016/01/15,01:20,0.470,0.273,0.498,0.450,0.422,0.227,0.199,north-northwest,7.0,Yes
2016/01/15,01:30,0.474,0.273,0.496,0.450,0.424,0.226,0.199,north-northwest,6.6,Yes
2016/01/15,01:40,0.472,0.274,0.497,0.451,0.424,0.225,0.199,north-northwest,7.1,Yes
2016/01/15,01:50,0.470,0.274,0.498,0.450,0.425,0.225,0.199,north-northwest,7.0,Yes
2016/01/15,02:00,0.472,0.272,0.496,0.449,0.421,0.224,0.198,north-northwest,6.8,Yes
2016/01/15,02:10,0.471,0.274,0.495,0.450,0.422,0.225,0.199,north-northwest,6.6,Yes
2016/01/15,02:20,0.473,0.273,0.498,0.450,0.423,0.224,0.198,north-northwest,6.8,Yes
2016/01/15,02:30,0.472,0.274,0.497,0.450,0.423,0.225,0.198,north-northwest,6.3,Yes
2016/01/15,02:40,0.472,0.274,0.495,0.449,0.422,0.225,0.199,north-northwest,5.9,Yes
2016/01/15,02:50,0.470,0.274,0.495,0.449,0.422,0.225,0.197,north-northwest,5.9,Yes
2016/01/15,03:00,0.470,0.272,0.497,0.450,0.422,0.225,0.198,north-northwest,4.9,Yes
2016/01/15,03:10,0.469,0.272,0.495,0.450,0.422,0.225,0.198,north-northwest,5.9,No
2016/01/15,03:20,0.470,0.272,0.496,0.450,0.422,0.224,0.198,north-northwest,6.2,No
2016/01/15,03:30,0.468,0.272,0.495,0.449,0.421,0.224,0.199,north-northwest,7.3,No
2016/01/15,03:40,0.470,0.273,0.494,0.449,0.421,0.225,0.198,north-northwest,6.5,No
2016/01/15,03:50,0.470,0.272,0.495,0.449,0.422,0.224,0.198,north-northwest,7.6,No
2016/01/15,04:00,0.471,0.273,0.495,0.449,0.425,0.225,0.197,north-northwest,6.7,No
2016/01/15,04:10,0.469,0.273,0.496,0.448,0.422,0.225,0.198,north-northwest,6.4,No
2016/01/15,04:20,0.471,0.273,0.494,0.450,0.421,0.225,0.198,north-northwest,7.0,No
2016/01/15,04:30,0.471,0.272,0.495,0.451,0.420,0.226,0.198,north-northwest,7.0,No
2016/01/15,04:40,0.469,0.272,0.495,0.449,0.423,0.225,0.199,north-northwest,7.0,No
2016/01/15,04:50,0.471,0.273,0.496,0.450,0.422,0.225,0.199,north-northwest,7.0,No
2016/01/15,05:00,0.470,0.272,0.494,0.448,0.422,0.224,0.199,north-northwest,7.0,No
2016/01/15,05:10,0.469,0.273,0.494,0.449,0.422,0.224,0.197,north-northwest,6.8,No
2016/01/15,05:20,0.469,0.273,0.494,0.451,0.421,0.224,0.199,north-northwest,7.3,No
2016/01/15,05:30,0.470,0.271,0.495,0.449,0.422,0.225,0.199,north-northwest,8.2,No
2016/01/15,05:40,0.470,0.273,0.494,0.447,0.422,0.224,0.198,north-northwest,7.3,No
2016/01/15,05:50,0.472,0.273,0.494,0.450,0.421,0.224,0.198,north-northwest,7.1,No
2016/01/15,06:00,0.471,0.273,0.496,0.450,0.421,0.224,0.197,north-northwest,7.0,No
2016/01/15,06:10,0.469,0.273,0.496,0.448,0.422,0.223,0.198,north-northwest,8.1,No
2016/01/15,06:20,0.468,0.273,0.494,0.447,0.424,0.226,0.198,north-northwest,7.8,No
2016/01/15,06:30,0.471,0.272,0.495,0.446,0.422,0.225,0.198,north-northwest,7.5,No
2016/01/15,06:40,0.469,0.272,0.495,0.450,0.421,0.225,0.198,north-northwest,7.7,No
2016/01/15,06:50,0.470,0.272,0.496,0.450,0.420,0.224,0.198,north-northwest,7.2,Yes
2016/01/15,07:00,0.470,0.272,0.494,0.448,0.422,0.225,0.198,north-northwest,7.0,Yes
2016/01/15,07:10,0.468,0.273,0.493,0.449,0.422,0.225,0.198,north,8.4,Yes
2016/01/15,07:20,0.470,0.273,0.494,0.449,0.421,0.225,0.198,north-northwest,8.8,Yes
2016/01/15,07:30,0.470,0.272,0.493,0.450,0.422,0.225,0.197,north-northwest,8.5,Yes
2016/01/15,07:40,0.470,0.274,0.494,0.448,0.421,0.225,0.198,north-northwest,8.4,Yes
2016/01/15,07:50,0.470,0.273,0.494,0.448,0.421,0.226,0.198,north-northwest,7.7,Yes
2016/01/15,08:00,0.470,0.274,0.494,0.446,0.420,0.225,0.198,north-northwest,8.4,Yes
2016/01/15,08:10,0.469,0.273,0.492,0.449,0.424,0.225,0.198,north-northwest,8.7,Yes
2016/01/15,08:20,0.469,0.273,0.494,0.448,0.423,0.226,0.198,north-northwest,8.4,Yes
2016/01/15,08:30,0.468,0.273,0.494,0.447,0.423,0.224,0.198,north-northwest,7.4,Yes
2016/01/15,08:40,0.469,0.273,0.492,0.446,0.421,0.224,0.199,north-northwest,7.6,Yes
2016/01/15,08:50,0.468,0.272,0.494,0.447,0.421,0.224,0.198,north-northwest,7.0,Yes
2016/01/15,09:00,0.467,0.272,0.492,0.446,0.421,0.225,0.197,north-northwest,7.6,Yes
2016/01/15,09:10,0.467,0.273,0.493,0.445,0.421,0.224,0.197,north-northwest,8.1,Yes
2016/01/15,09:20,0.466,0.271,0.493,0.445,0.421,0.224,0.198,north-northwest,7.3,Yes
2016/01/15,09:30,0.467,0.271,0.491,0.445,0.419,0.226,0.198,north-northwest,5.7,Yes
2016/01/15,09:40,0.466,0.271,0.493,0.447,0.418,0.223,0.198,north-northwest,5.4,Yes
2016/01/15,09:50,0.466,0.271,0.493,0.446,0.419,0.225,0.198,north-northwest,5.6,No
2016/01/15,10:00,0.464,0.272,0.493,0.444,0.420,0.224,0.197,north-northwest,4.7,No
2016/01/15,10:10,0.465,0.270,0.490,0.444,0.418,0.224,0.195,north-northwest,4.7,No
2016/01/15,10:20,0.467,0.271,0.492,0.446,0.418,0.224,0.196,north-northwest,4.7,No
2016/01/15,10:30,0.466,0.271,0.492,0.443,0.418,0.223,0.197,northwest,4.0,No
2016/01/15,10:40,0.465,0.270,0.492,0.444,0.420,0.223,0.196,northwest,4.2,No
2016/01/15,10:50,0.466,0.271,0.492,0.443,0.420,0.224,0.196,northwest,4.1,No
2016/01/15,11:00,0.467,0.270,0.490,0.446,0.417,0.223,0.196,north-northwest,5.1,No
2016/01/15,11:10,0.464,0.271,0.492,0.444,0.417,0.223,0.196,north-northwest,4.4,No
2016/01/15,11:20,0.466,0.271,0.493,0.445,0.419,0.222,0.197,north-northwest,5.1,Yes
2016/01/15,11:30,0.466,0.271,0.492,0.446,0.419,0.224,0.197,north-northwest,5.8,Yes
2016/01/15,11:40,0.468,0.270,0.490,0.446,0.419,0.222,0.196,north,6.3,Yes
2016/01/15,11:50,0.469,0.270,0.492,0.446,0.418,0.222,0.196,north-northwest,6.1,Yes
2016/01/15,12:00,0.468,0.270,0.492,0.444,0.420,0.222,0.196,north-northwest,6.8,Yes
2016/01/15,12:10,0.468,0.270,0.491,0.449,0.420,0.223,0.196,north,5.6,Yes
2016/01/15,12:20,0.468,0.272,0.490,0.445,0.420,0.223,0.196,north,6.3,No
2016/01/15,12:30,0.468,0.270,0.495,0.444,0.420,0.222,0.196,north-northwest,7.0,No
2016/01/15,12:40,0.468,0.271,0.494,0.446,0.420,0.222,0.196,north,6.8,No
2016/01/15,12:50,0.469,0.272,0.490,0.448,0.419,0.223,0.196,north,7.0,No
2016/01/15,13:00,0.469,0.271,0.491,0.446,0.419,0.223,0.196,north,7.0,No
2016/01/15,13:10,0.467,0.270,0.493,0.447,0.421,0.223,0.197,north,7.6,No
2016/01/15,13:20,0.468,0.272,0.489,0.446,0.420,0.224,0.197,north-northwest,6.5,No
2016/01/15,13:30,0.469,0.271,0.491,0.446,0.421,0.223,0.196,north-northwest,5.3,No
2016/01/15,13:40,0.469,0.271,0.493,0.445,0.420,0.223,0.197,north,5.8,No
2016/01/15,13:50,0.468,0.271,0.493,0.446,0.419,0.224,0.196,north-northwest,5.1,No
2016/01/15,14:00,0.469,0.271,0.490,0.447,0.422,0.224,0.197,north-northwest,6.7,No
2016/01/15,14:10,0.470,0.271,0.490,0.446,0.423,0.223,0.197,north-northwest,5.0,No
2016/01/15,14:20,0.468,0.271,0.493,0.446,0.419,0.224,0.195,north-northwest,5.2,No
2016/01/15,14:30,0.468,0.272,0.493,0.445,0.420,0.224,0.196,north-northwest,5.0,No
2016/01/15,14:40,0.469,0.270,0.493,0.446,0.421,0.222,0.197,north-northwest,4.2,No
2016/01/15,14:50,0.469,0.272,0.494,0.446,0.419,0.222,0.197,north-northwest,4.6,No
2016/01/15,15:00,0.468,0.271,0.491,0.447,0.419,0.223,0.197,north-northwest,4.4,No
2016/01/15,15:10,0.469,0.271,0.492,0.445,0.423,0.222,0.198,north,4.0,No
2016/01/15,15:20,0.468,0.272,0.495,0.448,0.423,0.222,0.197,north,4.8,No
2016/01/15,15:30,0.468,0.271,0.494,0.448,0.419,0.222,0.197,north-northwest,3.6,No
2016/01/15,15:40,0.468,0.272,0.494,0.447,0.420,0.223,0.198,north,5.1,No
2016/01/15,15:50,0.469,0.272,0.493,0.446,0.422,0.224,0.198,north,4.6,No
2016/01/15,16:00,0.470,0.271,0.494,0.450,0.422,0.224,0.197,north,4.4,No
2016/01/15,16:10,0.471,0.271,0.494,0.447,0.421,0.224,0.198,north,3.0,No
2016/01/15,16:20,0.469,0.273,0.493,0.447,0.420,0.223,0.197,north-northwest,3.2,No
2016/01/15,16:30,0.470,0.273,0.493,0.447,0.420,0.224,0.197,north-northwest,4.4,No
2016/01/15,16:40,0.468,0.272,0.495,0.449,0.422,0.223,0.198,north-northwest,4.7,No
2016/01/15,16:50,0.468,0.271,0.494,0.448,0.422,0.224,0.197,north-northwest,4.5,No
2016/01/15,17:00,0.469,0.271,0.494,0.447,0.421,0.223,0.197,north-northwest,5.4,No
2016/01/15,17:10,0.468,0.273,0.494,0.447,0.422,0.225,0.198,north-northwest,4.4,No
2016/01/15,17:20,0.469,0.271,0.493,0.449,0.422,0.224,0.197,north-northwest,4.9,No
2016/01/15,17:30,0.470,0.271,0.494,0.448,0.423,0.224,0.196,north-northwest,5.2,No
2016/01/15,17:40,0.469,0.271,0.492,0.448,0.420,0.224,0.197,north-northwest,5.3,No
2016/01/15,17:50,0.470,0.271,0.494,0.448,0.422,0.224,0.197,north-northwest,5.4,No
2016/01/15,18:00,0.469,0.272,0.494,0.447,0.421,0.225,0.197,north-northwest,5.6,No
2016/01/15,18:10,0.470,0.272,0.493,0.448,0.421,0.225,0.198,north-northwest,7.0,No
2016/01/15,18:20,0.468,0.272,0.493,0.449,0.422,0.225,0.198,north-northwest,5.1,No
2016/01/15,18:30,0.468,0.272,0.494,0.448,0.421,0.224,0.198,north-northwest,4.8,No
2016/01/15,18:40,0.468,0.272,0.492,0.447,0.420,0.224,0.197,north-northwest,5.1,No
2016/01/15,18:50,0.471,0.271,0.494,0.450,0.422,0.223,0.197,north-northwest,7.4,No
2016/01/15,19:00,0.470,0.272,0.494,0.450,0.422,0.225,0.196,north-northwest,6.3,No
2016/01/15,19:10,0.469,0.271,0.494,0.448,0.421,0.225,0.197,north-northwest,7.0,No
2016/01/15,19:20,0.469,0.272,0.495,0.447,0.422,0.224,0.198,north-northwest,7.0,No
2016/01/15,19:30,0.469,0.272,0.496,0.448,0.422,0.225,0.197,north-northwest,6.3,No
2016/01/15,19:40,0.468,0.271,0.495,0.448,0.422,0.223,0.197,north-northwest,7.0,No
2016/01/15,19:50,0.468,0.272,0.492,0.449,0.421,0.224,0.198,north-northwest,6.5,No
2016/01/15,20:00,0.469,0.271,0.494,0.448,0.422,0.225,0.196,north-northwest,7.8,No
2016/01/15,20:10,0.469,0.273,0.493,0.450,0.423,0.225,0.198,north-northwest,8.4,No
2016/01/15,20:20,0.468,0.272,0.494,0.447,0.422,0.225,0.198,north-northwest,7.6,No
2016/01/15,20:30,0.470,0.271,0.495,0.448,0.419,0.224,0.198,north-northwest,7.1,No
2016/01/15,20:40,0.468,0.271,0.494,0.448,0.420,0.224,0.197,north-northwest,7.6,No
2016/01/15,20:50,0.469,0.272,0.492,0.447,0.421,0.224,0.197,north-northwest,7.4,No
2016/01/15,21:00,0.469,0.271,0.495,0.447,0.420,0.224,0.197,north-northwest,7.7,No
2016/01/15,21:10,0.468,0.271,0.493,0.448,0.422,0.224,0.197,north-northwest,7.0,No
2016/01/15,21:20,0.470,0.272,0.496,0.449,0.421,0.223,0.197,northwest,6.4,No
2016/01/15,21:30,0.467,0.272,0.494,0.449,0.422,0.225,0.197,north-northwest,5.7,No
2016/01/15,21:40,0.469,0.272,0.493,0.448,0.421,0.224,0.197,north-northwest,6.2,No
2016/01/15,21:50,0.468,0.271,0.495,0.448,0.420,0.223,0.196,north-northwest,7.3,No
2016/01/15,22:00,0.469,0.271,0.494,0.447,0.421,0.225,0.196,north-northwest,6.6,No
2016/01/15,22:10,0.467,0.271,0.494,0.448,0.421,0.224,0.197,north-northwest,6.2,No
2016/01/15,22:20,0.468,0.272,0.494,0.448,0.419,0.223,0.198,northwest,5.3,No
2016/01/15,22:30,0.468,0.271,0.493,0.447,0.419,0.224,0.197,northwest,5.5,No
2016/01/15,22:40,0.469,0.271,0.494,0.448,0.420,0.225,0.197,northwest,5.5,No
2016/01/15,22:50,0.469,0.273,0.492,0.448,0.421,0.222,0.197,north-northwest,4.5,No
2016/01/15,23:00,0.469,0.270,0.494,0.447,0.420,0.224,0.197,northwest,3.8,No
2016/01/15,23:10,0.470,0.271,0.492,0.447,0.421,0.225,0.196,northwest,2.3,No
2016/01/15,23:20,0.468,0.270,0.493,0.446,0.418,0.223,0.197,northwest,3.0,No
2016/01/15,23:30,0.467,0.271,0.493,0.446,0.418,0.222,0.197,northwest,2.2,No
2016/01/15,23:40,0.469,0.271,0.494,0.448,0.421,0.224,0.197,north-northwest,5.7,No
2016/01/15,23:50,0.468,0.270,0.494,0.448,0.422,0.222,0.197,north-northwest,6.4,No
